Location: Kelowna
(49.8880°N, 119.4960°W)
Time: 00:29:35
(UTC-07:00)

ITAMSAT 1 - Visible Passes

Search period start: 13 October 2024 00:00
Search period end: 23 October 2024 00:00
Orbit: 781 x 795 km, 98.8° (Epoch: 12 October)

Date Brightness Start Highest point End Pass type
(mag) Time Alt. Az. Time Alt. Az. Time Alt. Az.
13 Oct 9.3 19:50:30 17° NE 19:50:30 17° NE 19:53:30 10° NNE visible
13 Oct 8.8 21:31:13 36° NNW 21:31:13 36° NNW 21:34:14 10° NNW visible
13 Oct 10.6 23:11:54 11° NW 23:11:54 11° NW 23:12:06 10° NW visible
14 Oct 9.6 19:20:14 10° NE 19:20:46 10° NE 19:21:29 10° NE visible
14 Oct 8.7 21:00:56 34° NNE 21:00:56 34° NNE 21:04:04 10° N visible
14 Oct 10.2 22:41:38 17° NW 22:41:38 17° NW 22:43:06 10° NW visible
15 Oct 8.9 20:30:39 26° NNE 20:30:39 26° NNE 20:33:43 10° N visible
15 Oct 9.7 22:11:21 23° NW 22:11:21 23° NW 22:13:28 10° NNW visible
16 Oct 9.2 20:00:23 18° NE 20:00:23 18° NE 20:03:06 10° NNE visible
16 Oct 9.3 21:41:05 29° NNW 21:41:05 29° NNW 21:43:35 10° NNW visible
17 Oct 9.6 19:30:07 12° NE 19:30:07 12° NE 19:31:49 10° NNE visible
17 Oct 9.0 21:10:48 30° N 21:10:48 30° N 21:13:28 10° N visible
17 Oct 10.5 22:51:30 13° NW 22:51:30 13° NW 22:52:13 10° NW visible
18 Oct 9.0 20:40:32 26° NNE 20:40:32 26° NNE 20:43:11 10° N visible
18 Oct 10.1 22:21:13 18° NW 22:21:13 18° NW 22:22:43 10° NNW visible
19 Oct 9.3 20:10:15 19° NE 20:10:15 19° NE 20:12:39 10° N visible
19 Oct 9.6 21:50:56 23° NNW 21:50:56 23° NNW 21:52:53 10° NNW visible
20 Oct 9.5 19:39:58 13° NE 19:39:58 13° NE 19:41:40 10° NNE visible
20 Oct 9.3 21:20:39 26° N 21:20:39 26° N 21:22:50 10° NNW visible
21 Oct 9.2 20:50:22 24° N 20:50:22 24° N 20:52:35 10° N visible
21 Oct 10.4 22:31:03 14° NW 22:31:03 14° NW 22:31:55 10° NNW visible
22 Oct 9.3 20:20:04 19° NNE 20:20:04 19° NNE 20:22:08 10° N visible
22 Oct 10.0 22:00:46 19° NNW 22:00:46 19° NNW 22:02:10 10° NNW visible
